Elizabethtown, NC

8:11 PM EDT on May 25, 2017 (GMT -0400)
Elizabethtown

Weather History for KEYF - January, 2013

Change the Weather History Date:

Monday, January 21, 2013

  Actual Average (KILM) Record (KILM)
Temperature  
Mean Temperature 48 °F -  
Max Temperature 64 °F 53 °F 78 °F (1954)
Min Temperature 33 °F 34 °F 5 °F (1985)
Degree Days  
Heating Degree Days 16    
Moisture  
Dew Point 33 °F    
Average Humidity 58    
Maximum Humidity 94    
Minimum Humidity 32    
Precipitation  
Precipitation 0.00 in - - ()
Sea Level Pressure  
Sea Level Pressure 30.01 in    
Wind  
Wind Speed 2 mph (SW)    
Max Wind Speed 13 mph    
Max Gust Speed 17 mph    
Visibility 10 miles    
Events      
Averages and records for this station are not official NWS values.
T = Trace of Precipitation, MM = Missing Value Source: NWS Daily Summary

Daily Weather History Graph

Daily Weather History Graph

Search for Another Location

Airport or City:

Trip Planner

Search our weather history database for the weather conditions in past years. The results will help you decide how hot, cold, wet, or windy it might be!

Date:

Astronomy

Jan. 21, 2013 Rise Set
Actual Time 7:17 AM EST 5:32 PM EST
Civil Twilight 6:50 AM EST 5:59 PM EST
Nautical Twilight 6:20 AM EST 6:29 PM EST
Astronomical Twilight 5:50 AM EST 6:59 PM EST
Moon 1:11 PM EST (1/21) 2:44 AM EST (1/21)
Length of Visible Light 11h 08m
Length of Day
10h 14m
Waxing Gibbous, 75% of the Moon is Illuminated
Jan 21
Waxing Gibbous
Jan 26
Full
Feb 3
Last Quarter
Feb 10
New
Feb 17
First Quarter

Hourly Weather History & Observations

Time (EST) Temp. Dew Point Humidity Pressure Visibility Wind Dir Wind Speed Gust Speed Precip Events Conditions
12:15 AM 42.3 °F 35.6 °F 77% 30.09 in 10.0 mi Calm Calm - N/A   Clear
12:35 AM 42.8 °F 35.6 °F 76% 30.08 in 10.0 mi Calm Calm - N/A   Clear
12:55 AM 41.7 °F 35.2 °F 78% 30.08 in 10.0 mi Calm Calm - N/A   Clear
1:15 AM 41.2 °F 35.1 °F 79% 30.07 in 10.0 mi Calm Calm - N/A   Clear
1:35 AM 40.6 °F 34.5 °F 79% 30.07 in 10.0 mi Calm Calm - N/A   Clear
1:55 AM 39.7 °F 34.2 °F 80% 30.07 in 10.0 mi Calm Calm - N/A   Clear
2:15 AM 39.2 °F 34.3 °F 83% 30.08 in 10.0 mi Calm Calm - N/A   Clear
2:35 AM 38.8 °F 34.0 °F 83% 30.07 in 10.0 mi Calm Calm - N/A   Clear
2:55 AM 38.7 °F 34.2 °F 84% 30.07 in 10.0 mi Calm Calm - N/A   Clear
3:15 AM 38.3 °F 34.0 °F 84% 30.07 in 10.0 mi Calm Calm - N/A   Clear
3:35 AM 38.8 °F 32.9 °F 79% 30.07 in 10.0 mi Calm Calm - N/A   Clear
3:55 AM 37.2 °F 33.1 °F 85% 30.07 in 10.0 mi Calm Calm - N/A   Clear
4:15 AM 37.8 °F 32.9 °F 83% 30.06 in 10.0 mi Calm Calm - N/A   Clear
4:35 AM 36.7 °F 32.2 °F 84% 30.06 in 10.0 mi Calm Calm - N/A   Clear
4:55 AM 36.1 °F 32.2 °F 86% 30.06 in 10.0 mi Calm Calm - N/A   Clear
5:15 AM 35.6 °F 32.0 °F 87% 30.06 in 10.0 mi Calm Calm - N/A   Clear
5:35 AM 35.8 °F 32.2 °F 87% 30.06 in 10.0 mi Calm Calm - N/A   Clear
5:55 AM 35.6 °F 32.0 °F 87% 30.06 in 10.0 mi Calm Calm - N/A   Clear
6:15 AM 34.9 °F 32.0 °F 89% 30.06 in 10.0 mi Calm Calm - N/A   Clear
6:35 AM 34.7 °F 31.6 °F 89% 30.07 in 10.0 mi Calm Calm - N/A   Clear
6:55 AM 33.8 °F 31.8 °F 92% 30.07 in 10.0 mi Calm Calm - N/A   Clear
7:15 AM 33.4 °F 31.5 °F 92% 30.07 in 10.0 mi Calm Calm - N/A   Clear
7:35 AM 33.1 °F 31.6 °F 94% 30.07 in 10.0 mi Calm Calm - N/A   Clear
7:55 AM 34.7 °F 32.0 °F 90% 30.07 in 10.0 mi Calm Calm - N/A   Clear
8:15 AM 35.8 °F 32.5 °F 88% 30.08 in 10.0 mi Calm Calm - N/A   Clear
8:35 AM 38.8 °F 34.7 °F 85% 30.08 in 10.0 mi Calm Calm - N/A   Clear
8:55 AM 44.8 °F 34.2 °F 66% 30.07 in 10.0 mi Calm Calm - N/A   Clear
9:15 AM 46.9 °F 33.3 °F 59% 30.08 in 10.0 mi Calm Calm - N/A   Clear
9:35 AM 48.6 °F 33.8 °F 57% 30.08 in 10.0 mi Calm Calm - N/A   Clear
9:55 AM 49.3 °F 33.3 °F 54% 30.08 in 10.0 mi East 5.8 mph - N/A   Clear
10:15 AM 50.9 °F 32.7 °F 50% 30.08 in 10.0 mi ESE 3.5 mph - N/A   Clear
10:35 AM 52.9 °F 31.5 °F 44% 30.08 in 10.0 mi ESE 5.8 mph - N/A   Clear
10:55 AM 54.9 °F 28.2 °F 36% 30.07 in 10.0 mi ENE 4.6 mph - N/A   Clear
11:15 AM 55.6 °F 28.2 °F 35% 30.06 in 10.0 mi ESE 4.6 mph - N/A   Clear
11:35 AM 57.0 °F 28.8 °F 34% 30.05 in 10.0 mi ESE 3.5 mph - N/A   Clear
11:55 AM 57.7 °F 28.9 °F 33% 30.03 in 10.0 mi SSE 4.6 mph - N/A   Clear
12:15 PM 59.4 °F 30.6 °F 34% 30.01 in 10.0 mi SSE 5.8 mph - N/A   Clear
12:35 PM 60.8 °F 32.0 °F 34% 29.99 in 10.0 mi South 3.5 mph - N/A   Clear
12:55 PM 61.9 °F 34.0 °F 35% 29.97 in 10.0 mi SSE 6.9 mph - N/A   Clear
1:15 PM 62.8 °F 35.1 °F 36% 29.96 in 10.0 mi South 9.2 mph - N/A   Clear
1:35 PM 63.5 °F 35.2 °F 35% 29.95 in 10.0 mi South 8.1 mph - N/A   Clear
1:55 PM 64.0 °F 36.0 °F 35% 29.93 in 10.0 mi SSW 11.5 mph - N/A   Clear
2:15 PM 64.6 °F 35.8 °F 34% 29.93 in 10.0 mi SW 10.4 mph - N/A   Clear
2:35 PM 64.4 °F 36.5 °F 36% 29.92 in 10.0 mi SW 11.5 mph - N/A   Clear
2:55 PM 64.4 °F 35.6 °F 34% 29.92 in 10.0 mi WSW 9.2 mph 17.3 mph N/A   Clear
3:15 PM 64.4 °F 35.1 °F 34% 29.91 in 10.0 mi SW 11.5 mph 16.1 mph N/A   Clear
3:35 PM 64.4 °F 35.6 °F 34% 29.90 in 10.0 mi SW 8.1 mph - N/A   Clear
3:55 PM 64.4 °F 34.0 °F 32% 29.91 in 10.0 mi WSW 8.1 mph - N/A   Clear
4:15 PM 63.5 °F 33.8 °F 33% 29.90 in 10.0 mi WSW 5.8 mph - N/A   Clear
4:35 PM 62.8 °F 32.9 °F 33% 29.90 in 10.0 mi WSW 8.1 mph - N/A   Clear
4:55 PM 61.3 °F 33.3 °F 35% 29.91 in 10.0 mi WSW 5.8 mph - N/A   Clear
5:15 PM 60.3 °F 33.4 °F 37% 29.91 in 10.0 mi WSW 4.6 mph - N/A   Clear
5:35 PM 58.3 °F 34.3 °F 41% 29.92 in 10.0 mi WSW 3.5 mph - N/A   Clear
5:55 PM 57.4 °F 34.7 °F 43% 29.93 in 10.0 mi WSW 4.6 mph - N/A   Clear
6:15 PM 56.7 °F 34.2 °F 43% 29.93 in 10.0 mi West 4.6 mph - N/A   Clear
6:35 PM 55.4 °F 34.7 °F 46% 29.92 in 10.0 mi SW 4.6 mph - N/A   Clear
6:55 PM 54.9 °F 33.8 °F 45% 29.93 in 10.0 mi WSW 3.5 mph - N/A   Clear
7:15 PM 53.2 °F 34.5 °F 49% 29.93 in 10.0 mi SW 4.6 mph - N/A   Clear
7:35 PM 52.2 °F 34.0 °F 50% 29.93 in 10.0 mi SW 4.6 mph - N/A   Clear
8:15 PM 52.9 °F 33.8 °F 48% 29.94 in 10.0 mi SW 3.5 mph - N/A   Clear
8:35 PM 52.2 °F 33.1 °F 48% 29.94 in 10.0 mi WSW 4.6 mph - N/A   Clear
8:55 PM 52.2 °F 32.9 °F 48% 29.95 in 10.0 mi WSW 3.5 mph - N/A   Clear
9:15 PM 51.1 °F 32.4 °F 49% 29.95 in 10.0 mi SW 5.8 mph - N/A   Clear
9:35 PM 52.2 °F 32.0 °F 46% 29.95 in 10.0 mi WSW 5.8 mph - N/A   Clear
9:55 PM 52.2 °F 31.6 °F 46% 29.95 in 10.0 mi WSW 6.9 mph - N/A   Clear
10:15 PM 53.1 °F 31.6 °F 44% 29.96 in 10.0 mi WSW 8.1 mph - N/A   Clear
10:35 PM 53.6 °F 31.1 °F 42% 29.97 in 10.0 mi West 12.7 mph 16.1 mph N/A   Clear
11:15 PM 53.1 °F 30.6 °F 42% 29.98 in 10.0 mi WNW 10.4 mph 16.1 mph N/A   Clear
11:35 PM 52.2 °F 30.2 °F 43% 29.99 in 10.0 mi WNW 8.1 mph - N/A   Clear
11:55 PM 51.1 °F 28.2 °F 41% 29.99 in 10.0 mi WNW 9.2 mph - N/A   Clear